Weather History for KSJN - March, 2013

Change the Weather History Date:

Sunday, March 3, 2013

  Actual Average (KSOW) Record (KSOW)
Temperature  
Mean Temperature 42 °F -  
Max Temperature 57 °F 49 °F 70 °F (1972)
Min Temperature 27 °F 29 °F -2 °F (1966)
Degree Days  
Heating Degree Days 23    
Moisture  
Dew Point 16 °F    
Average Humidity 37    
Maximum Humidity 74    
Minimum Humidity 10    
Precipitation  
Precipitation 0.00 in - - ()
Sea Level Pressure  
Sea Level Pressure 29.99 in    
Wind  
Wind Speed 8 mph (WSW)    
Max Wind Speed 26 mph    
Max Gust Speed 34 mph    
Visibility 10 miles    
Events Rain    
Averages and records for this station are not official NWS values.
T = Trace of Precipitation, MM = Missing Value Source: NWS Daily Summary

Daily Weather History Graph

Daily Weather History Graph

Search for Another Location

Airport or City:

Trip Planner

Search our weather history database for the weather conditions in past years. The results will help you decide how hot, cold, wet, or windy it might be!

Date:

Astronomy

Mar. 03, 2013 Rise Set
Actual Time 6:43 AM MST 6:15 PM MST
Civil Twilight 6:18 AM MST 6:40 PM MST
Nautical Twilight 5:49 AM MST 7:09 PM MST
Astronomical Twilight 5:20 AM MST 7:39 PM MST
Moon No Moon Rise 10:18 AM MST (3/3)
Length of Visible Light 12h 22m
Length of Day
11h 31m
Waning Gibbous, 63% of the Moon is Illuminated
Mar 3
Waning Gibbous
Mar 4
Last Quarter
Mar 11
New
Mar 19
First Quarter
Mar 27
Full

Hourly Weather History & Observations

Time (MST) Temp. Windchill Dew Point Humidity Pressure Visibility Wind Dir Wind Speed Gust Speed Precip Events Conditions
12:54 AM 35.1 °F 30.1 °F 18.0 °F 50% 30.12 in 10.0 mi South 5.8 mph - N/A   Clear
1:54 AM 28.0 °F - 17.1 °F 63% 30.12 in 7.0 mi Calm Calm - N/A   Clear
2:54 AM 24.1 °F - 16.0 °F 71% 30.11 in 10.0 mi Calm Calm - N/A   Clear
3:54 AM 26.1 °F 21.9 °F 17.1 °F 69% 30.08 in 9.0 mi SSW 3.5 mph - N/A   Clear
4:54 AM 24.1 °F - 16.0 °F 71% 30.07 in 10.0 mi Calm Calm - N/A   Clear
5:54 AM 25.0 °F - 16.0 °F 69% 30.09 in 10.0 mi Calm Calm - N/A   Clear
6:54 AM 19.9 °F - 12.9 °F 74% 30.15 in 10.0 mi Calm Calm - N/A   Clear
7:54 AM 28.4 °F - 17.6 °F 64% 30.14 in 10.0 mi Calm Calm - N/A   Clear
8:54 AM 39.0 °F 36.8 °F 19.9 °F 46% 30.07 in 10.0 mi NW 3.5 mph - N/A   Clear
9:54 AM 46.9 °F - 18.0 °F 32% 30.05 in 10.0 mi North 5.8 mph - N/A   Clear
10:54 AM 60.1 °F - 17.1 °F 19% 29.97 in 10.0 mi Variable 6.9 mph - N/A   Clear
11:54 AM 59.0 °F - 12.9 °F 16% 29.98 in 10.0 mi West 13.8 mph 23.0 mph N/A   Partly Cloudy
12:54 PM 60.1 °F - 8.1 °F 13% 29.93 in 10.0 mi WSW 12.7 mph 24.2 mph N/A   Clear
1:54 PM 61.0 °F - 3.9 °F 10% 29.93 in 10.0 mi WSW 23.0 mph 28.8 mph N/A   Scattered Clouds
2:54 PM 63.0 °F - 12.9 °F 14% 29.91 in 10.0 mi WSW 21.9 mph 33.4 mph N/A   Mostly Cloudy
3:54 PM 61.0 °F - 12.9 °F 15% 29.92 in 10.0 mi WSW 26.5 mph 34.5 mph N/A   Scattered Clouds
4:54 PM 59.0 °F - 8.1 °F 13% 29.92 in 10.0 mi WSW 15.0 mph 21.9 mph N/A   Mostly Cloudy
5:54 PM 57.9 °F - 16.0 °F 19% 29.91 in 10.0 mi WSW 18.4 mph 31.1 mph N/A   Overcast
6:54 PM 55.9 °F - 19.9 °F 25% 29.94 in 10.0 mi WSW 21.9 mph 31.1 mph N/A   Mostly Cloudy
7:54 PM 53.1 °F - 24.1 °F 32% 29.93 in 10.0 mi WSW 20.7 mph 27.6 mph 0.00 in Rain Light Rain
8:54 PM 52.0 °F - 21.9 °F 31% 29.89 in 10.0 mi WSW 12.7 mph - 0.00 in   Mostly Cloudy
9:54 PM 52.0 °F - 18.0 °F 26% 29.85 in 10.0 mi SW 20.7 mph 28.8 mph N/A   Mostly Cloudy
10:54 PM 51.1 °F - 14.0 °F 23% 29.80 in 10.0 mi SW 18.4 mph - N/A   Scattered Clouds
11:54 PM 48.0 °F - 16.0 °F 28% 29.81 in 10.0 mi SW 11.5 mph - N/A   Clear